Location: Beaver Meadows
(40.3729°N, 105.6140°W)
Time: 11:40:25
(UTC-06:00)

Iridium 67 - Visible Passes

Search period start: 19 April 2015 00:00
Search period end: 29 April 2015 00:00
Orbit: 776 x 779 km, 86.4° (Epoch: 19 April)

Date Brightness Start Highest point End Pass type
(mag) Time Alt. Az. Time Alt. Az. Time Alt. Az.
19 Apr 7.5 00:23:46 24° N 00:23:46 24° N 00:25:49 10° N visible
19 Apr 7.5 23:50:11 22° NNE 23:50:11 22° NNE 23:52:06 10° NNE visible
20 Apr 8.0 01:30:37 14° NW 01:30:37 14° NW 01:31:49 10° NNW visible
20 Apr 7.7 23:16:33 17° NE 23:16:33 17° NE 23:18:00 10° NNE visible
21 Apr 7.7 00:57:01 21° NNW 00:57:01 21° NNW 00:59:05 10° NNW visible
21 Apr 8.0 22:42:56 11° NE 22:42:56 11° NE 22:43:09 10° NE visible
22 Apr 7.3 00:23:23 28° NNW 00:23:23 28° NNW 00:25:52 10° N visible
22 Apr 7.1 23:49:45 29° NNE 23:49:45 29° NNE 23:52:20 10° N visible
23 Apr 8.1 01:30:13 12° NW 01:30:13 12° NW 01:30:56 10° NW visible
23 Apr 7.2 23:16:07 24° NE 23:16:07 24° NE 23:18:29 10° NNE visible
24 Apr 7.7 00:56:34 20° NW 00:56:34 20° NW 00:58:46 10° NNW visible
24 Apr 7.5 22:42:27 16° NE 22:42:27 16° NE 22:44:10 10° NE visible
25 Apr 7.2 00:22:55 30° NNW 00:22:55 30° NNW 00:25:48 10° N visible
25 Apr 6.7 23:49:15 38° N 23:49:15 38° N 23:52:27 10° N visible
26 Apr 6.7 23:15:35 35° NNE 23:15:35 35° NNE 23:18:47 10° NNE visible
27 Apr 7.8 00:56:02 16° WNW 00:56:02 16° WNW 00:58:11 10° NW visible
27 Apr 7.0 22:41:54 24° NE 22:41:54 24° NE 22:44:47 10° NNE visible
28 Apr 7.2 00:22:21 27° NW 00:22:21 27° NW 00:25:35 10° NNW visible
28 Apr 7.5 22:08:12 15° ENE 22:08:12 15° ENE 22:10:09 10° NE visible
28 Apr 6.5 23:48:40 44° NNW 23:48:40 44° NNW 23:52:26 10° N visible
